P/2019 S3 ( PanSTARRS ) 2025

Japanese version
Home page
Updated on March 25, 2025

---------------------------------------------------------------------

* Profile

* Orbital Elements

Epoch 2025 Dec. 31.0 TT = JDT 2461040.5                                         
T 2025 Dec. 18.99021 TT                                 Williams                
q   1.8070203            (2000.0)            P               Q                  
n   0.15628927     Peri.  213.13568     +0.99527103     -0.06134872             
a   3.4133693      Node   150.10649     +0.07975332     +0.95869859             
e   0.4706051      Incl.    8.69132     -0.05545261     +0.27772890             
P   6.31                                                                        
From 56 observations 2019 Aug. 27-Nov. 2, mean residual 0".5.                   

* Magnitudes Graph

        m1 = 17.5 + 5 log d + 10.0 log r

---------------------------------------------------------------------

The orbital elements are published on M.P.E.C. 2019-V116.
The magnitudes graphs are made with Comet for Windows.

---------------------------------------------------------------------

Copyright(C) Seiichi Yoshida (comet@aerith.net). All rights reserved.